Location: Sihaung
(22.8641°N, 94.0549°E)
Time: 12:36:11
(UTC+00:00)

H-2A R/B - Pass Details

Date: 03 March 2021
Orbit: 501 x 538 km, 97.3° (Epoch: 12 March)

Event Time Altitude Azimuth Distance (km) Brightness Sun altitude
Rises 22:48:08 0° 16° (NNE) 2,687 6.5 -18.0°
Reaches altitude 10° 22:50:17 10° 19° (NNE) 1,793 5.7 -17.5°
Maximum altitude 22:54:07 60° 100° (E) 612 3.3 -16.6°
Drops below altitude 10° 22:57:55 10° 181° (S) 1,775 5.4 -15.8°
Sets 23:00:01 0° 185° (S) 2,657 6.3 -15.3°
